Tracking 31027 objects as of 19-Jul-2025
HD Live streaming from Space Station
objects crossing your sky now

DELTA 1 DEB

Track DELTA 1 DEB now!
10-day predictions


NORAD ID: 7933
Int'l Code: 1972-058CB
Perigee: 611.0 km
Apogee: 1,024.5 km
Inclination: 99.0 °
Period: 101.1 minutes
Semi major axis: 7188 km
RCS: 0.0774 m2 (small)
Launch date: July 23, 1972
Source: United States (US)
Launch site: AIR FORCE WESTERN TEST RANGE (AFWTR)

Note: This is SATELLITE DEBRIS
Your satellite tracking list
STARLINK-31611
Track 1 satellite(s)




NASA's NSSDC Master Catalog

Two Line Element Set (TLE):
1 07933U 72058CB  25199.48872229  .00001567  00000-0  45580-3 0  9996
2 07933  99.0017 217.7745 0287615  41.4142 320.8454 14.24365387548565
Source of the keplerian elements: AFSPC